This demonstration page uses our WeatherBlox Daily Observations layout. Learn more.

Left ArrowRight Arrow

44.8408, -93.29828

Hourly Observations for September 20, 2016

Temp ( °F °C ) Dew Point ( °F °C ) Humidity (%) Winds ( mph kmh ) Pressure ( in mb ) Visibility ( mi km ) Precip ( " mm )
12:53 am 00:53 Clear 62 16.7 54 12.2 75 75 Calm 30.06 1018 10 16 0.00 0.00
1:53 am 01:53 Clear 60 15.6 55 12.8 84 84 Calm 30.06 1018 10 16 0.00 0.00
2:53 am 02:53 Clear 58 14.4 53 11.7 84 84 SE 5 7 30.06 1018 10 16 0.00 0.00
3:53 am 03:53 Clear 58 14.4 52 11.1 81 81 SE 5 7 30.07 1018 10 16 0.00 0.00
4:53 am 04:53 Clear 58 14.4 51 10.6 78 78 Calm 30.07 1018 10 16 0.00 0.00
5:53 am 05:53 Clear 60 15.6 50 10 70 70 Calm 30.09 1019 10 16 0.00 0.00
6:53 am 06:53 Mostly Clear 59 15 49 9.4 69 69 SSW 3 6 30.10 1019 10 16 0.00 0.00
7:53 am 07:53 Mostly Cloudy 60 15.6 52 11.1 75 75 SE 3 6 30.10 1019 10 16 0.00 0.00
8:53 am 08:53 Mostly Cloudy 61 16.1 52 11.1 72 72 S 3 6 30.11 1020 10 16 0.00 0.00
9:53 am 09:53 Mostly Cloudy 64 17.8 54 12.2 70 70 ESE 3 6 30.11 1020 10 16 0.00 0.00
10:53 am 10:53 Mostly Cloudy 68 20 56 13.3 65 65 SSE 3 6 30.11 1020 10 16 0.00 0.00
11:53 am 11:53 Mostly Cloudy 72 22.2 57 13.9 59 59 VRB 3 6 30.13 1020 10 16 0.00 0.00
12:53 pm 12:53 Mostly Cloudy 72 22.2 57 13.9 59 59 N 3 6 30.13 1020 10 16 0.00 0.00
1:53 pm 13:53 Partly Cloudy 76 24.4 59 15 56 56 Calm 30.10 1019 10 16 0.00 0.00
2:53 pm 14:53 Mostly Cloudy 77 25 57 13.9 50 50 ENE 5 7 30.07 1018 10 16 0.00 0.00
3:53 pm 15:53 Mostly Cloudy 78 25.6 58 14.4 50 50 E 9 15 30.05 1018 10 16 0.00 0.00
4:53 pm 16:53 Partly Cloudy 78 25.6 57 13.9 48 48 E 13 20 30.02 1017 10 16 0.00 0.00
5:53 pm 17:53 Mostly Cloudy 77 25 58 14.4 52 52 E 10 17 30.01 1016 10 16 0.00 0.00
6:53 pm 18:53 Mostly Cloudy 76 24.4 57 13.9 52 52 ENE 8 13 30.01 1016 10 16 0.00 0.00
7:53 pm 19:53 Mostly Cloudy 74 23.3 58 14.4 57 57 E 9 15 30.02 1017 10 16 0.00 0.00
8:53 pm 20:53 Cloudy 73 22.8 56 13.3 55 55 E 9 15 30.04 1017 10 16 0.00 0.00
9:53 pm 21:53 Mostly Cloudy 73 22.8 56 13.3 55 55 ESE 14 22 30.01 1016 10 16 0.00 0.00
10:53 pm 22:53 Mostly Cloudy 72 22.2 56 13.3 57 57 ESE 13 20 29.99 1016 10 16 0.00 0.00
11:21 pm 23:21 Mostly Cloudy with Nearby Thunderstorms 72 22.2 56 13.3 57 57 E 10 17 29.97 1015 10 16 0.00 0.00
11:30 pm 23:30 Mostly Cloudy with Thunderstorms 72 22 57 14 61 61 E 7 11 29.97 1015 10 16 0.00 0.00
11:53 pm 23:53 Cloudy with Thunderstorms 69 20.6 60 15.6 73 73 SE 12 19 30.01 1016 10 16 0.03 0.76
11:57 pm 23:57 Mostly Cloudy with Nearby Thunderstorms 68 20 60 15.6 76 76 SE 12 19 30.00 1016 10 16 0.00 0.03

Powered by AerisWeather